Location: �mondeville
(49.4591°N, 1.3431°W)
Time: 18:33:02
(UTC+00:00)

ADEOS - Pass Details

Date: 22 October 2019
Orbit: 793 x 794 km, 98.8° (Epoch: 18 November)

Event Time Altitude Azimuth Distance (km) Brightness Sun altitude
Rises 03:56:17 0° 16° (NNE) 3,308 7.2 -26.6°
Reaches altitude 10° 03:58:38 10° 17° (NNE) 2,374 6.4 -26.2°
Maximum altitude 04:03:53 78° 105° (ESE) 816 3.6 -25.4°
Enters shadow 04:05:54 39° 185° (S) 1,184 4.3 -25.1°
